Ephrata, WA

1:36 PM PDT on August 30, 2016 (GMT -0700)
Ephrata Municipal

Weather History for KEPH - August, 2013

Change the Weather History Date:

Friday, August 2, 2013

  Actual Average Record
Temperature  
Mean Temperature 69 °F 76 °F  
Max Temperature 76 °F 90 °F 102 °F (1961)
Min Temperature 61 °F 62 °F 37 °F (2001)
Degree Days  
Heating Degree Days 0 0  
Month to date heating degree days 0 0  
Since 1 June heating degree days 58 68  
Since 1 July heating degree days 0 8  
Cooling Degree Days 4 11  
Month to date cooling degree days 12 22  
Year to date cooling degree days 629 462  
Since 1 June cooling degree days 572 425  
Growing Degree Days 17 (Base 50)    
Moisture  
Dew Point 56 °F    
Average Humidity 70    
Maximum Humidity 90    
Minimum Humidity 49    
Precipitation  
Precipitation 0.03 in 0.01 in 0.13 in (1949)
Month to date precipitation 0.10 0.02  
Year to date precipitation 3.71 4.49  
Sea Level Pressure  
Sea Level Pressure 29.96 in    
Wind  
Wind Speed 7 mph (SSW)    
Max Wind Speed 16 mph    
Max Gust Speed 23 mph    
Visibility 10 miles    
Events Rain    
T = Trace of Precipitation, MM = Missing Value Source: NWS Daily Summary

Daily Weather History Graph

Daily Weather History Graph

Search for Another Location

Airport or City:

Trip Planner

Search our weather history database for the weather conditions in past years. The results will help you decide how hot, cold, wet, or windy it might be!

Date:

Astronomy

Aug. 02, 2013 Rise Set
Actual Time 5:38 AM PDT 8:29 PM PDT
Civil Twilight 5:02 AM PDT 9:04 PM PDT
Nautical Twilight 4:17 AM PDT 9:50 PM PDT
Astronomical Twilight 3:22 AM PDT 10:43 PM PDT
Moon 2:00 AM PDT (8/2) 5:34 PM PDT (8/2)
Length of Visible Light 16h 02m
Length of Day
14h 51m
Waning Crescent, 15% of the Moon is Illuminated
Aug 2
Waning Crescent
Aug 6
New
Aug 14
First Quarter
Aug 20
Full
Aug 28
Last Quarter

Hourly Weather History & Observations

Time (PDT) Temp. Dew Point Humidity Pressure Visibility Wind Dir Wind Speed Gust Speed Precip Events Conditions
12:53 AM 63.0 °F 59.0 °F 87% 29.91 in 9.0 mi NNE 5.8 mph - 0.00 in Rain Light Rain
1:53 AM 63.0 °F 59.0 °F 87% 29.90 in 10.0 mi Calm Calm - 0.03 in   Overcast
2:53 AM 63.0 °F 57.0 °F 81% 29.90 in 10.0 mi WNW 8.1 mph - 0.00 in   Overcast
3:53 AM 64.0 °F 57.0 °F 78% 29.90 in 10.0 mi Calm Calm - 0.00 in   Overcast
4:53 AM 63.0 °F 57.0 °F 81% 29.91 in 10.0 mi NW 6.9 mph - 0.00 in Rain Light Rain
5:53 AM 61.0 °F 57.9 °F 90% 29.91 in 10.0 mi SSW 5.8 mph - 0.00 in   Overcast
6:53 AM 61.0 °F 57.0 °F 87% 29.93 in 10.0 mi South 3.5 mph - 0.01 in   Overcast
7:53 AM 62.1 °F 55.0 °F 78% 29.95 in 10.0 mi WSW 12.7 mph - N/A   Overcast
8:53 AM 62.1 °F 54.0 °F 75% 29.96 in 10.0 mi SW 9.2 mph - N/A   Overcast
9:53 AM 64.0 °F 53.1 °F 67% 29.97 in 10.0 mi WSW 11.5 mph - N/A   Overcast
10:53 AM 66.0 °F 53.1 °F 63% 29.98 in 10.0 mi SW 9.2 mph - N/A   Overcast
11:53 AM 69.1 °F 53.1 °F 57% 29.98 in 10.0 mi WSW 6.9 mph - N/A   Overcast
12:53 PM 72.0 °F 52.0 °F 49% 29.97 in 10.0 mi SSW 9.2 mph - N/A   Overcast
1:53 PM 72.0 °F 51.1 °F 48% 29.98 in 10.0 mi SSW 10.4 mph - N/A   Overcast
2:53 PM 72.0 °F 54.0 °F 53% 29.98 in 10.0 mi SW 10.4 mph - N/A   Overcast
3:53 PM 73.9 °F 54.0 °F 50% 29.96 in 10.0 mi South 8.1 mph - N/A   Overcast
4:53 PM 73.9 °F 54.0 °F 50% 29.96 in 10.0 mi South 9.2 mph - N/A   Mostly Cloudy
5:53 PM 72.0 °F 55.9 °F 57% 29.96 in 10.0 mi SSE 13.8 mph - N/A   Clear
6:53 PM 70.0 °F 57.0 °F 63% 29.97 in 10.0 mi SSE 10.4 mph - N/A   Clear
7:53 PM 68.0 °F 57.0 °F 68% 29.99 in 10.0 mi SSE 8.1 mph - N/A   Clear
8:53 PM 66.0 °F 57.0 °F 73% 30.01 in 10.0 mi ESE 3.5 mph - N/A   Clear
9:53 PM 64.0 °F 57.0 °F 78% 30.03 in 10.0 mi ESE 6.9 mph - N/A   Partly Cloudy
10:53 PM 63.0 °F 57.0 °F 81% 30.04 in 10.0 mi ENE 3.5 mph - N/A   Overcast
11:53 PM 63.0 °F 57.0 °F 81% 30.04 in 10.0 mi Calm Calm - N/A   Scattered Clouds